Location: Voyageurs National Park
(48.5020°N, 92.9292°W)
Time: 07:14:43
(UTC-06:00)

Daily predictions for brighter satellites

Satellite Brightness Start Highest point End
(mag) Time Altitude Azimuth Time Altitude Azimuth Time Altitude Azimuth
Thor Agena Rocket 4.1 17:18:03 10° NNE 17:22:59 40° E 17:27:51 10° SSE
Cosmos 841 Rocket 3.6 17:19:31 10° S 17:24:42 61° ESE 17:29:54 10° NNE
Lacrosse 5 rocket 1.1 17:22:33 10° NW 17:26:17 80° NE 17:30:11 10° ESE
Cosmos 2333 4.2 17:21:17 10° SSW 17:26:51 72° ESE 17:32:27 10° NNE
Cosmos 1408 Rocket 3.8 17:22:31 10° SSW 17:26:59 79° WNW 17:31:24 10° N
Cosmos 2360 Rocket 3.0 17:22:05 10° SW 17:27:34 52° NW 17:33:04 10° NNE
SPOT 3 Rocket 3.5 17:23:58 10° SSE 17:29:06 73° ENE 17:34:17 10° NNW
Cosmos 1980 Rocket 4.4 17:26:33 10° WNW 17:29:28 14° NNW 17:32:23 10° N
MSX 3.8 17:24:00 10° SSE 17:29:39 66° ENE 17:35:21 10° N
SJ-7 4.3 17:26:34 10° SSE 17:30:35 72° ENE 17:34:35 10° N
Resurs 01 Rocket 3.5 17:29:51 10° ENE 17:30:42 10° NE 17:31:32 10° NE
Cosmos 1980 4.4 17:27:05 10° S 17:32:13 36° ESE 17:37:22 10° NE
COSMOS 2441 4.4 17:28:45 10° SSE 17:33:30 57° ENE 17:38:15 10° N
Cosmos 332 Rocket 3.9 17:29:51 10° S 17:34:38 63° ESE 17:39:28 10° NNE
Cosmos 2228 Rocket 3.2 17:31:06 10° N 17:35:32 83° W 17:39:58 10° S
CORIOLIS 4.1 17:31:22 10° SSE 17:36:43 82° ENE 17:42:07 10° NNW
ATLAS 5 CENTAUR R/B 3.8 17:33:44 10° NW 17:37:23 18° N 17:41:16 10° NE
Cosmos 2279 Rocket 4.3 17:31:49 10° N 17:37:42 42° ENE 17:43:34 10° SE
Cosmos 2151 3.7 17:34:29 10° SSE 17:38:13 31° E 17:41:57 10° NNE
MOS 1 4.4 17:33:39 10° SSE 17:39:19 89° WSW 17:45:02 10° NNW
Orbus 7S? 4.2 17:37:58 10° NW 17:41:04 38° NNE 17:46:54 10° E
Cosmos 44 4.0 17:39:13 10° S 17:44:04 40° ESE 17:48:46 10° NE
Cosmos 1328 4.1 17:41:01 10° SSE 17:44:47 46° E 17:48:35 10° NNE
Cosmos 2346 Rocket 4.5 17:40:03 10° S 17:46:15 69° E 17:52:26 10° NNE
CZ-4 R/B 2.2 17:44:13 10° S 17:48:01 53° W 17:51:52 10° NNW
Cosmos 1328 Rocket 4.1 17:44:39 10° NNW 17:49:04 64° W 17:53:27 10° S
ALOS 3.7 17:46:37 10° E 17:49:35 17° ENE 17:52:33 10° NNE
Cosmos 2333 Rocket 2.3 17:45:45 10° S 17:51:17 59° ESE 17:56:51 10° NE
Cosmos 1743 Rocket 3.6 17:47:00 10° S 17:51:28 88° W 17:55:59 10° N
IDEFIX/ARIANE 42P 3.3 17:46:35 10° S 17:51:44 60° W 17:56:57 10° NNW
Cosmos 2219 Rocket 2.2 17:46:53 10° SSW 17:52:30 75° ESE 17:58:08 10° NNE
DNEPR-1 R/B 4.5 17:47:01 10° SSW 17:53:41 64° SE 17:59:05 10° NE
Cosmos 1626 3.7 17:53:42 10° SE 17:56:03 16° E 17:56:51 15° ENE
Cosmos 1151 Rocket 2.9 17:51:52 10° N 17:56:10 81° E 18:00:28 10° SSE
Cosmos 1943 Rocket 4.1 17:55:47 10° NNE 17:56:14 10° NNE 17:56:40 10° NNE
Cosmos 2322 Rocket 4.3 17:54:23 10° W 17:58:16 18° NW 18:02:10 10° N
MONITOR-E 4.1 17:55:41 10° SSE 17:58:51 80° ENE 18:02:02 10° N
Cosmos 1515 Rocket 4.1 17:55:14 10° NNW 17:59:41 66° W 18:04:05 10° S
Cosmos 2278 Rocket 2.4 17:54:05 10° NNW 17:59:48 78° WSW 18:05:27 10° SSE
SJ-6B 3.8 17:57:38 10° SE 18:01:10 28° ENE 18:04:44 10° N
Aureole 2 Rocket 3.4 17:57:53 10° SSE 18:01:19 34° ESE 18:04:27 13° NE
Cosmos 836 Rocket 4.5 17:56:41 10° SSW 18:01:55 80° ESE 18:07:14 10° NNE
Cosmos 371 Rocket 3.2 17:58:41 10° SSW 18:03:29 85° ESE 18:08:20 10° NNE
Cosmos 1455 3.3 18:00:43 10° NNE 18:03:48 23° ENE 18:06:54 10° SE
Cosmos 1703 4.3 18:01:02 10° SE 18:04:17 25° E 18:06:55 13° NE
Cosmos 1674 4.1 18:02:51 10° SW 18:06:28 40° WNW 18:10:09 10° N
SKYMED 2 3.8 18:02:14 10° NNE 18:06:29 49° E 18:10:41 10° S
SMAP 4.3 18:02:57 10° S 18:07:26 46° W 18:11:57 10° NNW
Cosmos 1726 2.3 18:03:50 10° NNW 18:07:37 76° W 18:11:23 10° S
Cosmos 1763 Rocket 4.3 18:04:52 10° SW 18:09:56 51° WNW 18:14:58 10° NNE
Cosmos 1805 Rocket 4.2 18:06:18 10° SSE 18:10:18 33° E 18:14:19 10° NNE
Lacrosse 4 Rocket 2.3 18:07:01 10° NNW 18:10:30 26° NE 18:12:09 20° E
Cosmos 372 Rocket 4.1 18:05:48 10° NNW 18:10:55 80° WSW 18:16:00 10° SSE
Meteor 1-27 4.3 18:11:10 10° N 18:17:01 85° ENE 18:22:52 10° SSE
Cosmos 1500 Rocket 3.9 18:13:00 10° SSW 18:17:19 67° W 18:21:42 10° N
FREGAT/IRIS 3.3 18:18:19 10° SE 18:21:06 33° ENE 18:23:55 10° N
Cosmos 540 Rocket 3.4 18:16:20 10° SSW 18:21:30 81° ESE 18:26:42 10° NNE
Cosmos 2084 3.3 18:19:10 10° SW 18:23:01 71° NW 18:25:29 21° NE
Cosmos 1300 3.6 18:19:42 10° NNW 18:23:28 51° W 18:27:10 10° S
Cosmos 44 Rocket 3.6 18:19:57 10° SW 18:25:03 71° NW 18:29:12 15° NNE
ATLAS 3B R/B 4.2 18:20:11 10° NW 18:25:47 23° N 18:29:53 14° NE
Abrixas 3.6 18:24:08 10° SW 18:26:44 29° SSE 18:27:16 27° SE
Sich 1 3.7 18:23:42 10° SSE 18:27:41 33° E 18:29:42 22° NE
Cosmos 2237 Rocket 2.1 18:22:05 10° SSW 18:27:43 85° ESE 18:33:14 11° NNE
Cosmos 1340 Rocket 2.7 18:24:28 10° S 18:28:21 62° E 18:31:55 12° NNE
Cosmos 2369 Rocket 3.4 18:24:09 10° N 18:28:33 22° NE 18:29:27 21° NE
SL-14 R/B 3.5 18:25:30 10° SSW 18:29:26 74° W 18:33:27 10° N
USA 215 3.3 18:22:54 10° SE 18:29:28 87° SW 18:36:05 10° NW
NOSS 0 Rocket 4.0 18:25:49 10° SSW 18:32:03 82° WNW 18:38:16 10° NNE
Cosmos 1484 Rocket 4.0 18:28:33 10° S 18:32:22 46° W 18:36:15 10° NNW
Cosmos 1461 3.5 18:29:04 10° S 18:32:50 34° ESE 18:33:37 31° E
Cosmos 2058 2.8 18:28:46 10° S 18:32:52 90° ENE 18:37:00 10° N
COSMOS 2428 4.0 18:27:44 10° WSW 18:33:02 38° NW 18:38:21 10° NNE
SL-16 R/B 2.5 18:29:23 10° S 18:34:44 46° ESE 18:37:58 23° NE
Cosmos 1633 Rocket 3.6 18:31:09 10° SSE 18:35:08 34° E 18:36:08 31° ENE
Cosmos 1869 3.8 18:36:34 10° N 18:40:06 37° ENE 18:40:06 37° ENE
Cosmos 304 Rocket 3.7 18:37:26 10° S 18:42:11 64° ESE 18:45:06 23° NNE
Cosmos 2297 3.9 18:36:45 10° NNW 18:42:29 75° WSW 18:48:11 10° SSE
BREEZE-M DEB (TANK) 3.4 18:42:22 10° SSW 18:44:01 25° SSE 18:44:01 25° SSE
Meteor 1-28 Rocket 3.1 18:44:44 14° N 18:47:58 83° WNW 18:51:41 10° SSW
Lacrosse 5 3.0 18:43:52 10° WNW 18:48:22 31° N 18:50:06 25° NE
BREEZE-M DEB (TANK) 2.4 18:49:58 10° SW 18:51:39 36° SSW 18:51:39 36° SSW
Cosmos 1356 Rocket 3.2 18:50:34 10° S 18:54:30 65° E 18:55:25 48° NE
COSMO-SKYMED 1 3.2 18:50:17 10° N 18:54:34 56° WNW 18:58:48 10° SSW
Cosmos 1707 Rocket 3.6 18:50:46 10° NNW 18:55:07 76° W 18:59:27 10° S
CZ-3A R/B 3.0 18:51:58 10° WNW 18:56:56 66° SW 19:01:31 14° SE
CZ-4C R/B 3.8 18:55:56 10° NW 19:01:24 27° NNE 19:02:59 25° NE
Aureole 1 Rocket 4.1 18:57:08 10° S 19:02:28 48° E 19:05:30 30° NE
Lacrosse 5 rocket 3.9 19:02:29 10° W 19:05:07 18° SW 19:07:48 10° S
Spot 2 Rocket 3.3 19:00:30 10° SSE 19:05:30 69° ENE 19:10:32 10° N
Resurs 01 Rocket 1.5 19:03:50 25° SSE 19:06:21 70° ENE 19:10:47 10° N
CENTAUR R/B 3.8 19:02:42 10° W 19:08:41 38° NNW 19:13:26 18° NNE
Cosmos 1666 Rocket 3.4 19:05:01 10° S 19:09:22 89° W 19:11:29 30° N
BREEZE M DEB (TANK) 4.0 19:08:10 10° WSW 19:09:32 14° SW 19:09:43 14° SSW
FENGYUN 3A 3.5 19:05:32 10° SSE 19:10:53 79° ENE 19:16:18 10° NNW
Resurs 1-3 3.7 19:11:46 58° NNE 19:11:46 58° NNE 19:15:35 10° N
USA 229 DEB 4.0 19:05:00 10° S 19:11:22 43° ESE 19:12:13 41° E
USA 229 4.0 19:05:07 10° S 19:11:28 42° ESE 19:12:17 41° E
BREEZE-M DEB (TANK) 4.3 18:50:50 10° W 19:11:48 84° N 19:13:47 45° E
Cosmos 1538 Rocket 3.9 19:13:51 10° SSW 19:19:10 89° ESE 19:21:10 40° NNE
Iridium 4 Rocket 3.7 19:16:41 10° S 19:19:42 42° S 19:19:42 42° S
ATLAS 5 CENTAUR R/B 3.2 19:18:46 10° NNW 19:23:24 31° NNE 19:23:24 31° NNE
Cosmos 44 4.4 19:20:28 10° WSW 19:25:21 41° NW 19:27:14 29° N
ALOS 2.4 19:21:50 10° S 19:26:29 73° WSW 19:31:11 10° NNW
Cosmos 1867 4.4 19:22:55 10° NNW 19:27:09 37° NNE 19:27:09 37° NNE
FengYun 1-2 T 4.4 19:24:20 10° S 19:29:53 71° WSW 19:35:25 10° NNW
Cosmos 1626 3.3 19:27:31 10° SSW 19:31:05 42° WNW 19:31:36 39° NW
Cosmos 2333 Rocket 3.8 19:31:01 10° WSW 19:35:55 29° NW 19:39:53 14° N
Cosmos 2242 Rocket 4.2 19:32:09 10° NNW 19:36:29 55° W 19:40:48 10° S
Cosmos 2219 Rocket 4.1 19:32:32 10° W 19:37:04 24° NW 19:41:07 12° N
Cosmos 1455 4.1 19:36:13 10° NNW 19:39:32 29° W 19:42:52 10° SSW
Cosmos 1943 Rocket 3.7 19:36:48 10° NNW 19:39:22 23° N 19:39:22 23° N
Lacrosse 4 Rocket 2.8 19:45:31 10° NW 19:48:34 36° W 19:48:34 36° W
Cosmos 2237 Rocket 4.2 20:08:12 10° W 20:12:33 22° NW 20:15:05 17° N
Cosmos 2369 Rocket 3.1 20:07:37 10° NNW 20:11:17 42° NNW 20:11:17 42° NNW
ATLAS 3B R/B 3.9 20:12:24 10° NW 20:17:08 30° N 20:17:08 30° N
SL-16 R/B 3.5 20:13:49 10° WSW 20:18:59 36° NW 20:19:54 34° NNW
Lacrosse 5 4.0 20:27:25 10° NW 20:29:18 22° NW 20:29:18 22° NW
Resurs 01 Rocket 4.5 20:41:22 11° WSW 20:43:19 14° W 20:45:47 10° NW
CZ-4C R/B 3.9 20:44:29 10° NW 20:48:11 35° NNW 20:48:11 35° NNW
CENTAUR R/B 4.4 20:55:53 10° NW 21:00:37 24° NNW 21:00:37 24° NNW
ATLAS 5 CENTAUR R/B 4.4 21:03:15 10° NW 21:04:58 21° NW 21:04:58 21° NW
